"Platform","Saginaw Bay ReCON Buoy"
"NDBC ID","45163"
"Latitude (deg)",43.98440
"Longitude (deg)",-83.59753
"Water Depth (m)",12.7
"Sensor Device","System Power Controller board voltage input"
"Sensor Type","Voltage at underwater hub"
"Sensor Units","voltage"
"Measurement","A sample"
"Time means","Time at sample (UTC time zone)"

"Note:","This data was collected for research purposes."
"Note:","Minimal quality checking has been performed so data may contain known or unknown errors."
"Note:","Data provided by NOAA. Please credit NOAA."
"Note:","For more info see www.glerl.noaa.gov/res/recon"

"Time (UTC)","U/W Hub"
"YYYY/MM/DD HH:MM","volts"
2024/05/16 00:17, 50.08
2024/05/16 00:37, 50.02
2024/05/16 00:57, 49.99
2024/05/16 01:17, 49.96
2024/05/16 01:37, 49.95
2024/05/16 01:57, 49.95
2024/05/16 02:17, 49.99
2024/05/16 02:37, 49.99
2024/05/16 02:57, 49.96
2024/05/16 03:17, 49.97
2024/05/16 03:37, 49.97
2024/05/16 03:57, 49.95
2024/05/16 04:17, 49.97
2024/05/16 04:37, 50.00
2024/05/16 04:57, 49.99
2024/05/16 05:17, 50.00
2024/05/16 05:37, 50.03
2024/05/16 05:57, 49.99
2024/05/16 06:17, 49.99
2024/05/16 06:37, 49.96
2024/05/16 06:57, 50.00
2024/05/16 07:17, 49.98
2024/05/16 07:37, 50.00
2024/05/16 07:57, 49.97
2024/05/16 08:17, 49.97
2024/05/16 08:37, 49.96
2024/05/16 08:57, 50.00
2024/05/16 09:17, 49.99
2024/05/16 09:37, 49.99
2024/05/16 09:57, 49.94
2024/05/16 10:17, 50.08
2024/05/16 10:37, 50.05
2024/05/16 10:57, 50.07
2024/05/16 11:17, 50.20
2024/05/16 11:37, 50.19
2024/05/16 11:57, 50.29
2024/05/16 12:17, 50.28
2024/05/16 12:37, 50.29
2024/05/16 12:57, 50.28
2024/05/16 13:17, 50.24
2024/05/16 13:37, 50.28
2024/05/16 13:57, 50.27
2024/05/16 14:17, 50.26
2024/05/16 14:37, 50.25
2024/05/16 14:57, 50.38
2024/05/16 15:17, 50.28
2024/05/16 15:37, 50.28
2024/05/16 15:57, 50.38
2024/05/16 16:17, 50.38
2024/05/16 16:37, 50.27
2024/05/16 16:57, 50.28
2024/05/16 17:17, 50.28
2024/05/16 17:37, 50.28
2024/05/16 17:57, 50.28
2024/05/16 18:17, 50.28
2024/05/16 18:37, 50.28
2024/05/16 18:57, 50.28
2024/05/16 19:17, 50.27
2024/05/16 19:37, 50.27
2024/05/16 19:57, 50.26
2024/05/16 20:17, 50.26
2024/05/16 20:37, 50.38
2024/05/16 20:57, 50.38
2024/05/16 21:17, 50.26
2024/05/16 21:37, 50.21
2024/05/16 21:57, 50.24
2024/05/16 22:17, 50.16
2024/05/16 22:37, 50.15
2024/05/16 22:57, 50.24
2024/05/16 23:17, 50.11
2024/05/16 23:37, 50.11
2024/05/16 23:57, 50.04
2024/05/17 00:17, 50.06
2024/05/17 00:37, 50.04
2024/05/17 00:57, 50.04
2024/05/17 01:17, 50.03
2024/05/17 01:37, 50.00
2024/05/17 01:57, 50.02
2024/05/17 02:17, 50.03
2024/05/17 02:37, 50.03
2024/05/17 02:57, 50.04
2024/05/17 03:17, 50.09
2024/05/17 03:37, 50.04
2024/05/17 03:57, 50.01
2024/05/17 04:17, 50.04
2024/05/17 04:37, 49.99
2024/05/17 04:57, 50.01
2024/05/17 05:17, 50.01
2024/05/17 05:37, 49.99
2024/05/17 05:57, 49.97
2024/05/17 06:17, 49.99
2024/05/17 06:37, 50.00
2024/05/17 06:57, 50.03
2024/05/17 07:17, 50.00
2024/05/17 07:37, 50.03
2024/05/17 07:57, 50.02
2024/05/17 08:17, 50.01
2024/05/17 08:37, 50.03
2024/05/17 08:57, 49.99
2024/05/17 09:17, 50.00
2024/05/17 09:37, 50.00
2024/05/17 09:57, 49.99
2024/05/17 10:17, 49.99
2024/05/17 10:37, 50.08
2024/05/17 10:57, 50.21
2024/05/17 11:17, 50.25
2024/05/17 11:37, 50.25
2024/05/17 11:57, 50.25
2024/05/17 12:17, 50.26
2024/05/17 12:37, 50.23
2024/05/17 12:57, 50.21
2024/05/17 13:17, 50.17
2024/05/17 13:37, 50.19
2024/05/17 13:57, 50.20
2024/05/17 14:17, 50.18
2024/05/17 14:37, 50.15
2024/05/17 14:57, 50.18
2024/05/17 15:17, 50.22
2024/05/17 15:37, 50.19
2024/05/17 15:57, 50.22
2024/05/17 16:17, 50.24
2024/05/17 16:37, 50.22
2024/05/17 16:57, 50.13
2024/05/17 17:17, 50.16
2024/05/17 17:37, 50.02
2024/05/17 17:57, 50.04
2024/05/17 18:17, 50.10
2024/05/17 18:37, 50.19
2024/05/17 18:57, 50.17
2024/05/17 19:17, 50.13
2024/05/17 19:37, 50.08
2024/05/17 19:57, 50.05
2024/05/17 20:17, 50.18
2024/05/17 20:37, 50.24
2024/05/17 20:57, 50.19
2024/05/17 21:17, 50.17
2024/05/17 21:37, 50.23
2024/05/17 21:57, 50.25
2024/05/17 22:17, 50.24
2024/05/17 22:37, 50.23
2024/05/17 22:57, 50.19
2024/05/17 23:17, 50.20
2024/05/17 23:37, 50.21
2024/05/17 23:57, 50.24
2024/05/18 00:17, 50.26
2024/05/18 00:37, 50.11
2024/05/18 00:57, 50.07
2024/05/18 01:17, 50.00
2024/05/18 01:37, 50.05
2024/05/18 01:57, 50.06
2024/05/18 02:17, 50.06
2024/05/18 02:37, 50.03
2024/05/18 02:57, 50.02
2024/05/18 03:17, 50.08
2024/05/18 03:37, 50.07
2024/05/18 03:57, 50.06
2024/05/18 04:17, 50.06
2024/05/18 04:37, 50.02
2024/05/18 04:57, 50.05
2024/05/18 05:17, 50.07
2024/05/18 05:37, 50.06
2024/05/18 05:57, 50.06
2024/05/18 06:17, 50.06
2024/05/18 06:37, 50.07
2024/05/18 06:57, 50.01
2024/05/18 07:17, 50.04
2024/05/18 07:37, 50.06
2024/05/18 07:57, 50.05
2024/05/18 08:17, 50.06
2024/05/18 08:37, 50.05
2024/05/18 08:57, 50.07
2024/05/18 09:17, 50.06
2024/05/18 09:37, 49.90
2024/05/18 09:57, 50.06
2024/05/18 10:17, 50.05
2024/05/18 10:37, 50.06
2024/05/18 10:57, 50.07
2024/05/18 11:17, 50.09
2024/05/18 11:37, 50.08
2024/05/18 11:57, 50.00
2024/05/18 12:17, 50.10
2024/05/18 12:37, 50.09
2024/05/18 12:57, 50.12
2024/05/18 13:17, 50.07
2024/05/18 13:37, 50.25
2024/05/18 13:57, 50.29
2024/05/18 14:17, 50.28
2024/05/18 14:37, 50.28
2024/05/18 14:57, 50.24
2024/05/18 15:17, 50.14
2024/05/18 15:37, 50.24
2024/05/18 15:57, 50.28
2024/05/18 16:17, 50.24
2024/05/18 16:37, 50.25
2024/05/18 16:57, 50.22
2024/05/18 17:17, 50.26
2024/05/18 17:37, 50.24
2024/05/18 17:57, 50.24
2024/05/18 18:17, 50.27
2024/05/18 18:37, 50.25
2024/05/18 18:57, 50.24
2024/05/18 19:17, 50.25
2024/05/18 19:37, 50.19
2024/05/18 19:57, 50.26
2024/05/18 20:17, 50.24
2024/05/18 20:37, 50.23
2024/05/18 20:57, 50.24
2024/05/18 21:17, 50.22
2024/05/18 21:37, 50.24
2024/05/18 21:57, 50.20
2024/05/18 22:17, 50.23
2024/05/18 22:37, 50.25
2024/05/18 22:57, 50.24
2024/05/18 23:17, 50.26
2024/05/18 23:37, 50.24
2024/05/18 23:57, 50.23
2024/05/19 00:17, 50.24
2024/05/19 00:37, 50.13
2024/05/19 00:57, 50.03
2024/05/19 01:17, 50.04
2024/05/19 01:37, 50.07
2024/05/19 01:57, 50.05
2024/05/19 02:17, 50.07
2024/05/19 02:37, 49.91
2024/05/19 02:57, 50.07
2024/05/19 03:17, 50.04
2024/05/19 03:37, 49.97
2024/05/19 03:57, 50.08
2024/05/19 04:17, 50.08
2024/05/19 04:37, 50.06
2024/05/19 04:57, 49.97
2024/05/19 05:17, 50.04
2024/05/19 05:37, 50.05
2024/05/19 05:57, 50.07
2024/05/19 06:17, 50.06
2024/05/19 06:37, 50.06
2024/05/19 06:57, 50.06
2024/05/19 07:17, 50.07
2024/05/19 07:37, 50.06
2024/05/19 07:57, 50.07
2024/05/19 08:17, 50.05
2024/05/19 08:37, 50.05
2024/05/19 08:57, 50.06
2024/05/19 09:17, 50.01
2024/05/19 09:37, 50.02
2024/05/19 09:57, 50.02
2024/05/19 10:17, 50.04
2024/05/19 10:37, 50.08
2024/05/19 10:57, 50.07
2024/05/19 11:17, 50.09
2024/05/19 11:37, 50.14
2024/05/19 11:57, 50.14
2024/05/19 12:17, 50.28
2024/05/19 12:37, 50.25
2024/05/19 12:57, 50.28
2024/05/19 13:17, 50.07
2024/05/19 13:37, 50.22
2024/05/19 13:57, 50.26
2024/05/19 14:17, 50.27
2024/05/19 14:37, 50.23
2024/05/19 14:57, 50.25
2024/05/19 15:17, 50.24
2024/05/19 15:37, 50.25
2024/05/19 15:57, 50.21
2024/05/19 16:17, 50.19
2024/05/19 16:37, 50.23
2024/05/19 16:57, 50.25
2024/05/19 17:17, 50.24
2024/05/19 17:37, 50.19
2024/05/19 17:57, 50.17
2024/05/19 18:17, 50.13
2024/05/19 18:37, 50.22
2024/05/19 18:57, 50.24
2024/05/19 19:17, 50.23
2024/05/19 19:37, 50.25
2024/05/19 19:57, 50.23
2024/05/19 20:17, 50.27
2024/05/19 20:37, 50.25
2024/05/19 20:57, 50.25
2024/05/19 21:17, 50.28
2024/05/19 21:37, 50.26
2024/05/19 21:57, 50.21
2024/05/19 22:17, 50.24
2024/05/19 22:37, 50.22
2024/05/19 22:57, 50.22
2024/05/19 23:17, 50.25
2024/05/19 23:37, 50.24
2024/05/19 23:57, 50.25
2024/05/20 00:17, 50.19
2024/05/20 00:37, 50.17
2024/05/20 00:57, 50.04
2024/05/20 01:17, 50.00
2024/05/20 01:37, 50.02
2024/05/20 01:57, 50.08
2024/05/20 02:17, 50.08
2024/05/20 02:37, 50.07
2024/05/20 02:57, 50.07
2024/05/20 03:17, 50.04
2024/05/20 03:37, 50.02
2024/05/20 03:57, 50.02
2024/05/20 04:17, 50.05
2024/05/20 04:37, 50.04
2024/05/20 04:57, 50.01
2024/05/20 05:17, 50.01
2024/05/20 05:37, 50.02
2024/05/20 05:57, 50.05
2024/05/20 06:17, 50.06
2024/05/20 06:37, 50.06
2024/05/20 06:57, 50.05
2024/05/20 07:17, 50.03
2024/05/20 07:37, 50.06
2024/05/20 07:57, 50.06
2024/05/20 08:17, 50.04
2024/05/20 08:37, 50.06
2024/05/20 08:57, 50.05
2024/05/20 09:17, 50.05
2024/05/20 09:37, 50.01
2024/05/20 09:57, 50.02
2024/05/20 10:17, 50.03
2024/05/20 10:37, 50.04
2024/05/20 10:57, 50.16
2024/05/20 11:17, 50.11
2024/05/20 11:37, 50.19
2024/05/20 11:57, 50.28
2024/05/20 12:17, 50.25
2024/05/20 12:37, 50.28
2024/05/20 12:57, 50.28
2024/05/20 13:17, 50.28
2024/05/20 13:37, 50.25
2024/05/20 13:57, 50.24
2024/05/20 14:17, 50.18
2024/05/20 14:37, 50.24
2024/05/20 14:57, 50.24
2024/05/20 15:17, 50.20
2024/05/20 15:37, 50.19
2024/05/20 15:57, 50.25
2024/05/20 16:17, 50.18
2024/05/20 16:37, 50.18
2024/05/20 16:57, 50.21
2024/05/20 17:17, 50.17
2024/05/20 17:37, 50.21
2024/05/20 17:57, 50.22
2024/05/20 18:17, 50.19
2024/05/20 18:37, 50.25
2024/05/20 18:57, 50.27
2024/05/20 19:17, 50.24
2024/05/20 19:37, 50.27
2024/05/20 19:57, 50.24
2024/05/20 20:17, 50.26
2024/05/20 20:37, 50.25
2024/05/20 20:57, 50.22
2024/05/20 21:17, 50.23
2024/05/20 21:37, 50.24
2024/05/20 21:57, 50.23
2024/05/20 22:17, 50.20
2024/05/20 22:37, 50.23
2024/05/20 22:57, 50.22
2024/05/20 23:17, 50.23
2024/05/20 23:37, 50.12
2024/05/20 23:57, 50.02
2024/05/21 00:17, 50.04
2024/05/21 00:37, 50.03
2024/05/21 00:57, 50.00
2024/05/21 01:17, 50.03
2024/05/21 01:37, 50.03
2024/05/21 01:57, 50.03
2024/05/21 02:17, 50.07
2024/05/21 02:37, 50.06
2024/05/21 02:57, 50.07
2024/05/21 03:17, 50.03
2024/05/21 03:37, 50.03
2024/05/21 03:57, 50.00
2024/05/21 04:17, 50.01
2024/05/21 04:37, 50.02
2024/05/21 04:57, 49.97
2024/05/21 05:17, 49.97
2024/05/21 05:37, 50.00
2024/05/21 05:57, 49.99
2024/05/21 06:17, 49.96
2024/05/21 06:37, 50.04
2024/05/21 06:57, 50.02
2024/05/21 07:17, 50.02
2024/05/21 07:37, 50.04
2024/05/21 07:57, 50.00
2024/05/21 08:17, 49.97
2024/05/21 08:37, 49.99
2024/05/21 08:57, 49.98
2024/05/21 09:17, 49.98
2024/05/21 09:37, 50.01
2024/05/21 09:57, 50.03
2024/05/21 10:17, 50.00
2024/05/21 10:37, 50.02
2024/05/21 10:57, 50.01
2024/05/21 11:17, 50.05
2024/05/21 11:37, 50.05
2024/05/21 11:57, 50.10
2024/05/21 12:17, 50.12
2024/05/21 12:37, 50.22
2024/05/21 12:57, 50.11
2024/05/21 13:17, 50.19
2024/05/21 13:37, 50.25
2024/05/21 13:57, 50.24
2024/05/21 14:17, 50.21
2024/05/21 14:37, 50.25
2024/05/21 14:57, 50.27
2024/05/21 15:17, 50.22
2024/05/21 15:37, 50.23
2024/05/21 15:57, 50.15
2024/05/21 16:17, 50.14
2024/05/21 16:37, 50.13
2024/05/21 16:57, 50.11
2024/05/21 17:17, 50.21
2024/05/21 17:37, 50.23
2024/05/21 17:57, 50.22
2024/05/21 18:17, 50.25
2024/05/21 18:37, 50.19
2024/05/21 18:57, 50.18
2024/05/21 19:17, 50.19
2024/05/21 19:37, 50.22
2024/05/21 19:57, 50.17
2024/05/21 20:17, 50.15
2024/05/21 20:37, 50.12
2024/05/21 20:57, 50.13
2024/05/21 21:17, 50.17
2024/05/21 21:37, 50.14
2024/05/21 21:57, 50.13
2024/05/21 22:17, 50.12
2024/05/21 22:37, 50.16
2024/05/21 22:57, 50.15
2024/05/21 23:17, 50.19
2024/05/21 23:37, 50.19
2024/05/21 23:57, 50.05
2024/05/22 00:17, 50.06
2024/05/22 00:37, 50.00
2024/05/22 00:57, 49.98
2024/05/22 01:17, 49.99
2024/05/22 01:37, 49.96
2024/05/22 01:57, 49.97
2024/05/22 02:17, 49.95
2024/05/22 02:37, 50.00
2024/05/22 02:57, 49.99
2024/05/22 03:17, 50.01
2024/05/22 03:37, 50.01
2024/05/22 03:57, 50.03
2024/05/22 04:17, 50.02
2024/05/22 04:37, 50.00
2024/05/22 04:57, 49.99
2024/05/22 05:17, 49.99
2024/05/22 05:37, 49.99
2024/05/22 05:57, 49.99
2024/05/22 06:17, 49.98
2024/05/22 06:37, 49.99
2024/05/22 06:57, 50.04
2024/05/22 07:17, 50.00
2024/05/22 07:37, 50.03
2024/05/22 07:57, 50.02
2024/05/22 08:17, 49.96
2024/05/22 08:37, 49.96
2024/05/22 08:57, 49.99
2024/05/22 09:17, 49.99
2024/05/22 09:37, 50.01
2024/05/22 09:57, 49.97
2024/05/22 10:17, 50.02
2024/05/22 10:37, 50.02
2024/05/22 10:57, 50.20
2024/05/22 11:17, 50.23
2024/05/22 11:37, 50.17
2024/05/22 11:57, 50.15
2024/05/22 12:17, 50.26
2024/05/22 12:37, 50.21
2024/05/22 12:57, 50.21
2024/05/22 13:17, 50.20
2024/05/22 13:37, 50.21
2024/05/22 13:57, 50.22
2024/05/22 14:17, 50.20
2024/05/22 14:37, 50.13
2024/05/22 14:57, 50.18
2024/05/22 15:17, 50.22
2024/05/22 15:37, 50.18
2024/05/22 15:57, 50.18
2024/05/22 16:17, 50.16
2024/05/22 16:37, 50.10
2024/05/22 16:57, 50.12
2024/05/22 17:17, 50.10
2024/05/22 17:37, 50.12
2024/05/22 17:57, 50.07
2024/05/22 18:17, 50.15
2024/05/22 18:37, 50.13
2024/05/22 18:57, 50.11
2024/05/22 19:17, 50.16
2024/05/22 19:37, 50.17
2024/05/22 19:57, 50.16
2024/05/22 20:17, 50.10
2024/05/22 20:37, 50.10
2024/05/22 20:57, 50.10
2024/05/22 21:17, 50.12
2024/05/22 21:37, 50.10
2024/05/22 21:57, 50.09
2024/05/22 22:17, 50.09
2024/05/22 22:37, 50.12
2024/05/22 22:57, 50.12
2024/05/22 23:17, 50.17
2024/05/22 23:37, 50.09
2024/05/22 23:57, 50.19
2024/05/23 00:17, 50.20
2024/05/23 00:37, 50.17
2024/05/23 00:57, 49.98
2024/05/23 01:17, 49.99
2024/05/23 01:37, 49.99
2024/05/23 01:57, 49.99
2024/05/23 02:17, 49.96
2024/05/23 02:37, 49.98
2024/05/23 02:57, 49.97
2024/05/23 03:17, 50.00
2024/05/23 03:37, 50.03
2024/05/23 03:57, 50.00
2024/05/23 04:17, 50.00
2024/05/23 04:37, 49.96
2024/05/23 04:57, 49.98
2024/05/23 05:17, 49.99
2024/05/23 05:37, 49.99
2024/05/23 05:57, 49.99
2024/05/23 06:17, 49.98
2024/05/23 06:37, 50.00
2024/05/23 06:57, 50.00
2024/05/23 07:17, 50.05
2024/05/23 07:37, 50.03
2024/05/23 07:57, 50.01
2024/05/23 08:17, 49.99
2024/05/23 08:37, 49.98
2024/05/23 08:57, 49.97
2024/05/23 09:17, 49.96
2024/05/23 09:37, 49.96
2024/05/23 09:57, 49.96
2024/05/23 10:17, 50.10
2024/05/23 10:37, 50.24
2024/05/23 10:57, 50.25
2024/05/23 11:17, 50.24
2024/05/23 11:37, 50.25
2024/05/23 11:57, 50.26
2024/05/23 12:17, 50.26
2024/05/23 12:37, 50.19
2024/05/23 12:57, 50.12
2024/05/23 13:17, 50.14
2024/05/23 13:37, 50.13
2024/05/23 13:57, 50.13
2024/05/23 14:17, 50.13
2024/05/23 14:37, 50.12
2024/05/23 14:57, 50.12
2024/05/23 15:17, 50.14
2024/05/23 15:37, 50.20
2024/05/23 15:57, 50.18
2024/05/23 16:17, 50.17
2024/05/23 16:37, 50.12
2024/05/23 16:57, 50.12
2024/05/23 17:17, 50.10
2024/05/23 17:37, 50.11
2024/05/23 17:57, 50.10
2024/05/23 18:17, 50.16
2024/05/23 18:37, 50.13
2024/05/23 18:57, 50.16
2024/05/23 19:17, 50.17
2024/05/23 19:37, 50.16
2024/05/23 19:57, 50.17
2024/05/23 20:17, 50.12
2024/05/23 20:37, 50.11
2024/05/23 20:57, 50.10
2024/05/23 21:17, 50.11
2024/05/23 21:37, 50.10
2024/05/23 21:57, 50.15
2024/05/23 22:17, 50.14
2024/05/23 22:37, 50.10
2024/05/23 22:57, 50.22
2024/05/23 23:17, 50.22
2024/05/23 23:37, 50.20
2024/05/23 23:57, 50.22
2024/05/24 00:17, 50.22
2024/05/24 00:37, 50.08
2024/05/24 00:57, 49.99
2024/05/24 01:17, 49.97
2024/05/24 01:37, 49.96
2024/05/24 01:57, 49.95
2024/05/24 02:17, 49.97
2024/05/24 02:37, 50.00
2024/05/24 02:57, 49.98
2024/05/24 03:17, 50.02
2024/05/24 03:37, 49.97
2024/05/24 03:57, 50.00
2024/05/24 04:17, 49.99
2024/05/24 04:37, 49.96
2024/05/24 04:57, 49.96
2024/05/24 05:17, 49.94
2024/05/24 05:37, 49.96
2024/05/24 05:57, 49.96
2024/05/24 06:17, 49.94
2024/05/24 06:37, 49.96
2024/05/24 06:57, 49.96
2024/05/24 07:17, 49.98
2024/05/24 07:37, 50.00
2024/05/24 07:57, 49.99
2024/05/24 08:17, 49.99
2024/05/24 08:37, 50.00
2024/05/24 08:57, 49.96
2024/05/24 09:17, 49.95
2024/05/24 09:37, 49.96
2024/05/24 09:57, 49.97
2024/05/24 10:17, 50.05
2024/05/24 10:37, 50.20
2024/05/24 10:57, 50.20
2024/05/24 11:17, 50.20
2024/05/24 11:37, 50.20
2024/05/24 11:57, 50.24
2024/05/24 12:17, 50.22
2024/05/24 12:37, 50.25
2024/05/24 12:57, 50.15
2024/05/24 13:17, 50.12
2024/05/24 13:37, 50.13
2024/05/24 13:57, 50.12
2024/05/24 14:17, 50.14
2024/05/24 14:37, 50.14
2024/05/24 14:57, 50.13
2024/05/24 15:17, 50.18
2024/05/24 15:37, 50.14
2024/05/24 15:57, 50.15
2024/05/24 16:17, 50.18
2024/05/24 16:37, 50.20
2024/05/24 16:57, 50.12
2024/05/24 17:17, 50.12
2024/05/24 17:37, 50.13
2024/05/24 17:57, 50.13
2024/05/24 18:17, 50.11
2024/05/24 18:37, 50.13
2024/05/24 18:57, 50.11
2024/05/24 19:17, 50.15
2024/05/24 19:37, 50.14
2024/05/24 19:57, 50.17
2024/05/24 20:17, 50.21
2024/05/24 20:37, 50.17
2024/05/24 20:57, 50.19
2024/05/24 21:17, 50.11
2024/05/24 21:37, 50.09
2024/05/24 21:57, 50.15
2024/05/24 22:17, 50.14
2024/05/24 22:37, 50.15
2024/05/24 22:57, 50.12
2024/05/24 23:17, 50.14
2024/05/24 23:37, 50.13
2024/05/24 23:57, 50.05
2024/05/25 00:17, 50.01
2024/05/25 00:37, 49.98
2024/05/25 00:57, 50.01
2024/05/25 01:17, 49.99
2024/05/25 01:37, 49.95
2024/05/25 01:57, 49.96
2024/05/25 02:17, 49.97
2024/05/25 02:37, 49.95
2024/05/25 02:57, 49.94
2024/05/25 03:17, 49.93
2024/05/25 03:37, 49.98
2024/05/25 03:57, 49.97
2024/05/25 04:17, 50.00
2024/05/25 04:37, 50.00
2024/05/25 04:57, 50.01
2024/05/25 05:17, 49.96
2024/05/25 05:37, 49.97
2024/05/25 05:57, 49.96
2024/05/25 06:17, 49.96
2024/05/25 06:37, 49.97
2024/05/25 06:57, 49.96
2024/05/25 07:17, 49.95
2024/05/25 07:37, 49.93
2024/05/25 07:57, 49.94
2024/05/25 08:17, 49.99
2024/05/25 08:37, 49.99
2024/05/25 08:57, 49.99
2024/05/25 09:17, 49.99
2024/05/25 09:37, 49.94
2024/05/25 09:57, 49.97
2024/05/25 10:17, 49.96
2024/05/25 10:37, 49.98
2024/05/25 10:57, 49.97
2024/05/25 11:17, 49.97
2024/05/25 11:37, 49.97
2024/05/25 11:57, 49.98
2024/05/25 12:17, 49.97
2024/05/25 12:37, 50.00
2024/05/25 12:57, 50.03
2024/05/25 13:17, 50.15
2024/05/25 13:37, 50.19
2024/05/25 13:57, 50.12
2024/05/25 14:17, 50.11
2024/05/25 14:37, 50.16
2024/05/25 14:57, 50.17
2024/05/25 15:17, 50.16
2024/05/25 15:37, 50.14
2024/05/25 15:57, 50.15
2024/05/25 16:17, 50.14
2024/05/25 16:37, 50.17
2024/05/25 16:57, 50.23
2024/05/25 17:17, 50.25
2024/05/25 17:37, 50.16
2024/05/25 17:57, 50.15
2024/05/25 18:17, 50.10
2024/05/25 18:37, 50.11
2024/05/25 18:57, 50.09
2024/05/25 19:17, 50.10
2024/05/25 19:37, 50.11
2024/05/25 19:57, 50.08
2024/05/25 20:17, 50.08
2024/05/25 20:37, 50.10
2024/05/25 20:57, 50.14
2024/05/25 21:17, 50.15
2024/05/25 21:37, 50.13
2024/05/25 21:57, 50.06
2024/05/25 22:17, 50.08
2024/05/25 22:37, 50.07
2024/05/25 22:57, 50.09
2024/05/25 23:17, 50.07
2024/05/25 23:37, 50.07
2024/05/25 23:57, 50.08
2024/05/26 00:17, 50.04
2024/05/26 00:37, 49.99
2024/05/26 00:57, 49.99
2024/05/26 01:17, 49.98
2024/05/26 01:37, 50.00
2024/05/26 01:57, 50.01
2024/05/26 02:17, 49.99
2024/05/26 02:37, 49.95
2024/05/26 02:57, 49.95
2024/05/26 03:17, 49.95
2024/05/26 03:37, 49.96
2024/05/26 03:57, 49.96
2024/05/26 04:17, 49.97
2024/05/26 04:37, 49.94
2024/05/26 04:57, 49.95
2024/05/26 05:17, 49.99
2024/05/26 05:37, 49.97
2024/05/26 05:57, 50.01
2024/05/26 06:17, 49.99
2024/05/26 06:37, 49.93
2024/05/26 06:57, 49.95
2024/05/26 07:17, 49.96
2024/05/26 07:37, 49.96
2024/05/26 07:57, 49.96
2024/05/26 08:17, 49.96
2024/05/26 08:37, 49.96
2024/05/26 08:57, 49.97
2024/05/26 09:17, 49.92
2024/05/26 09:37, 49.99
2024/05/26 09:57, 49.99
2024/05/26 10:17, 50.04
2024/05/26 10:37, 50.09
2024/05/26 10:57, 50.18
2024/05/26 11:17, 50.17
2024/05/26 11:37, 50.15
2024/05/26 11:57, 50.14
2024/05/26 12:17, 50.14
2024/05/26 12:37, 50.16
2024/05/26 12:57, 50.17
2024/05/26 13:17, 50.11
2024/05/26 13:37, 50.12
2024/05/26 13:57, 50.13
2024/05/26 14:17, 50.15
2024/05/26 14:37, 50.08
2024/05/26 14:57, 50.09
2024/05/26 15:17, 50.11
2024/05/26 15:37, 50.12
2024/05/26 15:57, 50.11
2024/05/26 16:17, 50.09
2024/05/26 16:37, 50.11
2024/05/26 16:57, 50.09
2024/05/26 17:17, 50.08
2024/05/26 17:37, 50.11
2024/05/26 17:57, 50.14
2024/05/26 18:17, 50.14
2024/05/26 18:37, 50.14
2024/05/26 18:57, 50.15
2024/05/26 19:17, 50.18
2024/05/26 19:37, 50.13
2024/05/26 19:57, 50.11
2024/05/26 20:17, 50.17
2024/05/26 20:37, 50.08
2024/05/26 20:57, 50.09
2024/05/26 21:17, 50.10
2024/05/26 21:37, 50.08
2024/05/26 21:57, 50.08
2024/05/26 22:17, 50.08
2024/05/26 22:37, 50.07
2024/05/26 22:57, 50.16
2024/05/26 23:17, 50.09
2024/05/26 23:37, 50.12
2024/05/26 23:57, 50.12
2024/05/27 00:17, 50.02
2024/05/27 00:37, 50.05
2024/05/27 00:57, 50.04
2024/05/27 01:17, 50.03
2024/05/27 01:37, 50.04
2024/05/27 01:57, 50.00
2024/05/27 02:17, 49.98
2024/05/27 02:37, 50.01
2024/05/27 02:57, 50.00
2024/05/27 03:17, 50.05
2024/05/27 03:37, 49.97
2024/05/27 03:57, 49.96
2024/05/27 04:17, 49.96
2024/05/27 04:37, 49.96
2024/05/27 04:57, 49.97
2024/05/27 05:17, 49.97
2024/05/27 05:37, 49.97
2024/05/27 05:57, 49.98
2024/05/27 06:17, 49.97
2024/05/27 06:37, 49.98
2024/05/27 06:57, 50.00
2024/05/27 07:17, 50.03
2024/05/27 07:37, 49.98
2024/05/27 07:57, 49.99
2024/05/27 08:17, 49.96
2024/05/27 08:37, 49.98
2024/05/27 08:57, 49.98
2024/05/27 09:17, 49.98
2024/05/27 09:37, 49.96
2024/05/27 09:57, 49.94
2024/05/27 10:17, 49.96
2024/05/27 10:37, 49.96
2024/05/27 10:57, 50.01
2024/05/27 11:17, 49.98
2024/05/27 11:37, 49.97
2024/05/27 11:57, 49.97
2024/05/27 12:17, 49.95
2024/05/27 12:37, 49.96
2024/05/27 12:57, 49.97
2024/05/27 13:17, 50.00
2024/05/27 13:37, 50.01
2024/05/27 13:57, 50.00
2024/05/27 14:17, 49.98
2024/05/27 14:37, 50.03
2024/05/27 14:57, 50.10
2024/05/27 15:17, 50.02
2024/05/27 15:37, 50.06
2024/05/27 15:57, 50.06
2024/05/27 16:17, 50.10
2024/05/27 16:37, 50.08
2024/05/27 16:57, 50.08
2024/05/27 17:17, 50.10
2024/05/27 17:37, 50.10
2024/05/27 17:57, 50.06
2024/05/27 18:17, 50.19
2024/05/27 18:37, 50.19
2024/05/27 18:57, 50.11
2024/05/27 19:17, 50.14
2024/05/27 19:37, 50.06
2024/05/27 19:57, 50.04
2024/05/27 20:17, 50.06
2024/05/27 20:37, 50.06
2024/05/27 20:57, 50.05
2024/05/27 21:17, 50.07
2024/05/27 21:37, 50.08
2024/05/27 21:57, 50.03
2024/05/27 22:17, 50.07
2024/05/27 22:37, 50.01
2024/05/27 22:57, 50.04
2024/05/27 23:17, 50.01
2024/05/27 23:37, 50.03
2024/05/27 23:57, 49.97
2024/05/28 00:17, 49.94
2024/05/28 00:37, 49.94
2024/05/28 00:57, 49.90
2024/05/28 01:17, 49.86
2024/05/28 01:37, 49.89
2024/05/28 01:57, 49.88
2024/05/28 02:17, 49.86
2024/05/28 02:37, 49.90
2024/05/28 02:57, 49.93
2024/05/28 03:17, 49.99
2024/05/28 03:37, 49.92
2024/05/28 03:57, 49.86
2024/05/28 04:17, 49.95
2024/05/28 04:37, 49.88
2024/05/28 04:57, 49.86
2024/05/28 05:17, 49.96
2024/05/28 05:37, 49.96
2024/05/28 05:57, 49.92
2024/05/28 06:17, 49.92
2024/05/28 06:37, 49.97
2024/05/28 06:57, 49.97
2024/05/28 07:17, 49.96
2024/05/28 07:37, 49.90
2024/05/28 07:57, 49.89
2024/05/28 08:17, 49.84
2024/05/28 08:37, 49.86
2024/05/28 08:57, 49.91
2024/05/28 09:17, 49.90
2024/05/28 09:37, 49.93
2024/05/28 09:57, 49.86
2024/05/28 10:17, 49.91
2024/05/28 10:37, 49.85
2024/05/28 10:57, 49.87
2024/05/28 11:17, 49.98
2024/05/28 11:37, 49.96
2024/05/28 11:57, 49.97
2024/05/28 12:17, 49.99
2024/05/28 12:37, 50.09
2024/05/28 12:57, 50.12
2024/05/28 13:17, 50.14
2024/05/28 13:37, 50.12
2024/05/28 13:57, 50.17
2024/05/28 14:17, 50.13
2024/05/28 14:37, 50.16
2024/05/28 14:57, 50.14
2024/05/28 15:17, 50.15
2024/05/28 15:37, 50.11
2024/05/28 15:57, 50.08
2024/05/28 16:17, 50.08
2024/05/28 16:37, 50.10
2024/05/28 16:57, 50.09
2024/05/28 17:17, 50.08
2024/05/28 17:37, 50.10
2024/05/28 17:57, 50.09
2024/05/28 18:17, 50.10
2024/05/28 18:37, 50.17
2024/05/28 18:57, 50.15
2024/05/28 19:17, 50.04
2024/05/28 19:37, 50.04
2024/05/28 19:57, 50.02
2024/05/28 20:17, 49.99
2024/05/28 20:37, 50.06
2024/05/28 20:57, 50.11
2024/05/28 21:17, 50.16
2024/05/28 21:37, 50.14
2024/05/28 21:57, 50.15
2024/05/28 22:17, 50.08
2024/05/28 22:37, 50.07
2024/05/28 22:57, 50.04